[[{"header":{"parameterUnit":"m.s-1","parameterCategory":2,"la1":30.2991,"la2":30.254,"lo1":-89.0895,"lo2":-89.0444,"dy":0.0017,"dx":0.0017,"nx":28,"ny":28,"refTime":"2024-07-08T21:00:00:Z","depth":"0","parameterNumber":2,"parameterNumberName":"U-component_of_CURRENTS"},"data":[0,0,0,0,0,0,0,0,0,0,0,0,0,0,0,0,0,0,0,0,0,0,0,0,0,0,0,0,0,0,0,0,0,0,0,0,0,0,0,0,0,0,0,0,0,0,0,0,0,0,0,0,0,0,0,0,0,0,0.2157,0.2157,0,0.2158,0.2158,0.2158,0.2138,0.2137,0.2137,0.2136,0.2189,0.2191,0.2193,0,0,0,0,0,0,0,0,0,0,0,0,0,0.219,0.219,0.2157,0.2157,0.2157,0.2158,0.2158,0.2158,0.2138,0.2137,0.2137,0.2136,0.2189,0.2191,0.2194,0,0,0,0,0,0,0,0,0,0,0,0,0,0.2183,0.2189,0.2157,0.2147,0.2146,0.2158,0.2158,0.2158,0.2138,0.2137,0.2137,0.2136,0.2188,0.2191,0.2194,0.223,0,0,0.2203,0.2204,0,0,0,0,0,0,0,0,0.2183,0.2181,0.2148,0.2147,0.2146,0.2146,0.2189,0.2184,0.2139,0.2142,0.2136,0.2135,0.218,0.2184,0.2186,0.2232,0.2235,0.2203,0.2205,0.2206,0.2207,0,0,0,0,0,0,0,0.2183,0.2182,0.2158,0.2148,0.2147,0.216,0.2157,0.2188,0.2167,0.2141,0.214,0.2139,0.218,0.2183,0.2187,0.2235,0.2203,0.2206,0.2207,0.2209,0.2392,0.2395,0,0,0,0,0,0,0.218,0.2182,0.2158,0.2158,0.2162,0.2159,0.2157,0.2148,0.2166,0.2167,0.214,0.2138,0.2179,0.2184,0.2189,0.2292,0.2206,0.2209,0.2211,0.2389,0.2393,0.2396,0,0,0,0,0,0,0.2181,0.2178,0.2158,0.217,0.2168,0.2159,0.215,0.2148,0.2154,0.2164,0.2166,0.2147,0.2178,0.2185,0.2235,0.2292,0.221,0.2213,0.2386,0.239,0.2395,0.246,0,0,0,0,0,0,0.2181,0.2178,0.2175,0.2169,0.2167,0.2178,0.215,0.2149,0.2154,0.2152,0.2171,0.2175,0.2178,0.2231,0.2238,0.2294,0.2215,0.2382,0.2388,0.2393,0.2454,0.2467,0.2477,0,0,0,0,0,0.2183,0.218,0.2175,0.2173,0.2162,0.2179,0.218,0.2171,0.2155,0.217,0.2187,0.2174,0.2274,0.2235,0.2243,0.2301,0.2379,0.2386,0.2393,0.2449,0.2464,0.2477,0,0,0,0,0,0,0.2195,0.2178,0.2172,0.2165,0.2178,0.2175,0.2183,0.2178,0.22,0.2198,0.2203,0.221,0.2284,0.2285,0.2243,0.2376,0.2329,0.2338,0.237,0.2384,0.2395,0.2387,0.2218,0,0,0,0,0,0.2196,0.2189,0.2187,0.2186,0.2191,0.219,0.2195,0.2193,0.2207,0.2214,0.223,0.2263,0.2321,0.2341,0.2384,0.2444,0.246,0.2493,0.2505,0.2514,0.2517,0.2594,0.2612,0.2419,0.2419,0.2419,0,0,0.2199,0.2191,0.2186,0.2189,0.2193,0.2222,0.2191,0.2204,0.2241,0.222,0.2275,0.2304,0.2348,0.2425,0.2458,0.2429,0.2582,0.2523,0.2531,0.2528,0.2603,0.2621,0.2638,0.2424,0.2423,0.2423,0,0,0.2217,0.2198,0.2208,0.2226,0.2239,0.2243,0.225,0.2261,0.2277,0.2334,0.2343,0.2398,0.2466,0.251,0.2544,0.2645,0.2645,0.2669,0.2713,0.2789,0.2804,0.2818,0.2872,0.289,0.2668,0.2668,0.2668,0,0.2227,0.2233,0.2218,0.225,0.2263,0.2258,0.2289,0.2319,0.2349,0.2372,0.2364,0.2487,0.2514,0.2621,0.2658,0.2671,0.2704,0.2651,0.2801,0.2816,0.2829,0.288,0.29,0.2672,0.2672,0.2671,0.2671,0,0.2262,0.2278,0.2289,0.232,0.2339,0.2363,0.2395,0.2423,0.2437,0.2467,0.2563,0.2609,0.2675,0.271,0.2715,0.2834,0.2825,0.2809,0.2757,0.2852,0.2901,0.292,0.2678,0.2676,0.2675,0.2674,0,0,0.2258,0.2302,0.2308,0.2332,0.2373,0.2388,0.2454,0.2504,0.2552,0.2605,0.2682,0.278,0.2788,0.2827,0.2851,0.2913,0.3037,0.29,0.2903,0.2938,0.32,0.3089,0.3099,0.3048,0.3052,0.3055,0.3199,0,0.2292,0.2345,0.2362,0.2422,0.2448,0.2469,0.2531,0.258,0.2631,0.2711,0.2774,0.2866,0.2843,0.2887,0.2949,0.3031,0.3088,0.2998,0.3116,0.312,0.2997,0.3117,0.2924,0.3027,0.3217,0.322,0.3222,0,0.2322,0.2349,0.2402,0.2457,0.2471,0.2511,0.2577,0.2639,0.2748,0.2796,0.2881,0.2935,0.3056,0.3017,0.3182,0.3128,0.3165,0.3208,0.3214,0.3097,0.3044,0.2965,0.3054,0.3006,0.325,0.3248,0.3246,0,0.2308,0.2376,0.2407,0.2431,0.25,0.2525,0.2564,0.2655,0.2723,0.2857,0.2934,0.3053,0.3152,0.3222,0.3297,0.326,0.3464,0.3422,0.3353,0.3346,0.3195,0.3167,0.3232,0.3524,0.3524,0.3523,0.3523,0,0.2331,0.2361,0.2401,0.2425,0.2473,0.2518,0.2592,0.2657,0.2776,0.2888,0.2976,0.3099,0.3212,0.333,0.3357,0.3422,0.3515,0.3386,0.3387,0.3212,0.3186,0.3143,0.3106,0.3529,0.3528,0.3527,0.3526,0,0.2327,0.2354,0.2395,0.2451,0.2471,0.2505,0.2601,0.2677,0.2781,0.294,0.2995,0.3181,0.3334,0.3412,0.3558,0.3508,0.3442,0.3553,0.3325,0.3295,0.3131,0.3103,0.2917,0.2848,0.3505,0.3503,0.3502,0,0.2336,0.2351,0.24,0.2433,0.2463,0.2517,0.2578,0.2672,0.2767,0.2992,0.3088,0.3273,0.3398,0.3547,0.3489,0.3505,0.341,0.3328,0.3204,0.3118,0.3091,0.2871,0.2814,0.3049,0.3044,0.3039,0.3036,0,0.2357,0.2362,0.2401,0.2466,0.252,0.2582,0.2673,0.2728,0.2876,0.2989,0.3173,0.3281,0.3394,0.3335,0.333,0.33,0.3107,0.324,0.3231,0.2804,0.2492,0.2427,0.2958,0.2999,0.3003,0.3006,0.3008,0.3009,0.2375,0.2415,0.2473,0.2537,0.2587,0.2666,0.2689,0.2779,0.2887,0.3009,0.3153,0.3204,0.319,0.3139,0.3101,0.2877,0.2849,0.2757,0.2755,0.2561,0.2395,0.2825,0.2809,0.2811,0.2813,0.2815,0.2817,0,0.246,0.2512,0.2561,0.2634,0.2675,0.2703,0.278,0.2766,0.2829,0.2901,0.298,0.2907,0.2822,0.2769,0.2563,0.2428,0.2247,0.2361,0.2059,0.2056,0.2534,0.2419,0.2219,0.2219,0.2219,0.2219,0.2219,0.2219,0.2522,0.2616,0.2653,0.273,0.2749,0.276,0.2776,0.2725,0.2711,0.2621,0.2526,0.2525,0.2509,0.2356,0.2192,0.2126,0.196,0.1726,0.183,0.2236,0.2274,0.231,0.2196,0.1953,0.1953,0.1191,0.1185,0.1181]},{"header":{"parameterUnit":"m.s-1","parameterCategory":2,"la1":30.2991,"la2":30.254,"lo1":-89.0895,"lo2":-89.0444,"dy":0.0017,"dx":0.0017,"nx":28,"ny":28,"refTime":"2024-07-08T21:00:00:Z","depth":"0","parameterNumber":3,"parameterNumberName":"V-component_of_CURRENTS"},"data":[0,0,0,0,0,0,0,0,0,0,0,0,0,0,0,0,0,0,0,0,0,0,0,0,0,0,0,0,0,0,0,0,0,0,0,0,0,0,0,0,0,0,0,0,0,0,0,0,0,0,0,0,0,0,0,0,0,0,0.0186,0.0186,0,0.0187,0.0187,0.0187,0.0182,0.0181,0.0181,0.0181,0.02,0.0201,0.0201,0,0,0,0,0,0,0,0,0,0,0,0,0,0.0193,0.0193,0.0186,0.0186,0.0186,0.0187,0.0187,0.0187,0.0182,0.0181,0.0181,0.0181,0.02,0.02,0.0201,0,0,0,0,0,0,0,0,0,0,0,0,0,0.0192,0.0193,0.0186,0.0183,0.0183,0.0187,0.0187,0.0187,0.0182,0.0181,0.0181,0.0181,0.0199,0.02,0.0201,0.0214,0,0,0.0205,0.0205,0,0,0,0,0,0,0,0,0.0192,0.0192,0.0183,0.0183,0.0183,0.0183,0.0196,0.0197,0.0182,0.0183,0.0181,0.0181,0.0196,0.0197,0.0199,0.0215,0.0216,0.0205,0.0205,0.0206,0.0206,0,0,0,0,0,0,0,0.0192,0.0192,0.0187,0.0183,0.0183,0.0186,0.0186,0.0196,0.0192,0.0182,0.0182,0.0181,0.0196,0.0198,0.0199,0.0216,0.0205,0.0206,0.0206,0.0207,0.0266,0.0267,0,0,0,0,0,0,0.0191,0.0192,0.0187,0.0187,0.0186,0.0186,0.0186,0.0184,0.0191,0.0192,0.0182,0.0181,0.0196,0.0198,0.02,0.0249,0.0206,0.0207,0.0207,0.0265,0.0266,0.0267,0,0,0,0,0,0,0.0191,0.019,0.0187,0.0189,0.0189,0.0186,0.0184,0.0184,0.0186,0.019,0.0191,0.0184,0.0196,0.0198,0.022,0.0248,0.0207,0.0208,0.0264,0.0265,0.0267,0.0326,0,0,0,0,0,0,0.0191,0.019,0.019,0.0189,0.0188,0.0197,0.0185,0.0184,0.0186,0.0185,0.0193,0.0194,0.0196,0.0219,0.0221,0.0249,0.0209,0.0263,0.0264,0.0266,0.0323,0.0329,0.0335,0,0,0,0,0,0.0191,0.0194,0.019,0.0189,0.0187,0.0197,0.0198,0.0195,0.0186,0.0194,0.0201,0.0194,0.0232,0.0221,0.0223,0.0252,0.0262,0.0264,0.0266,0.032,0.0328,0.0335,0,0,0,0,0,0,0.0197,0.0194,0.0189,0.019,0.0196,0.0196,0.0202,0.0197,0.0208,0.0207,0.0207,0.021,0.024,0.0235,0.0223,0.0273,0.0245,0.0248,0.0285,0.0293,0.0298,0.0325,0.021,0,0,0,0,0,0.0198,0.02,0.0199,0.0202,0.0204,0.0202,0.0204,0.0204,0.0211,0.0215,0.0223,0.0232,0.0251,0.0262,0.0274,0.0302,0.0297,0.0321,0.0327,0.0332,0.0355,0.0365,0.0374,0.0274,0.0274,0.0274,0,0,0.0199,0.0199,0.0199,0.0203,0.0205,0.023,0.0203,0.0212,0.0241,0.0217,0.0257,0.0253,0.0262,0.0297,0.031,0.0297,0.0354,0.0335,0.0339,0.036,0.0368,0.0378,0.0387,0.0276,0.0275,0.0275,0,0,0.0217,0.0206,0.0219,0.0231,0.0238,0.0245,0.0249,0.0255,0.0264,0.0297,0.0289,0.0306,0.033,0.0348,0.0359,0.0404,0.0384,0.0399,0.0457,0.0466,0.0475,0.0482,0.0475,0.0482,0.0405,0.0405,0.0405,0,0.0221,0.0242,0.0226,0.0252,0.0273,0.0256,0.0293,0.0303,0.0319,0.0342,0.0319,0.0373,0.0363,0.0425,0.0433,0.0421,0.0413,0.0429,0.0475,0.0483,0.0489,0.048,0.0487,0.0408,0.0407,0.0407,0.0407,0,0.0256,0.0279,0.0291,0.0323,0.0342,0.0367,0.0383,0.0404,0.0409,0.0425,0.0477,0.047,0.0507,0.0496,0.0478,0.0528,0.0502,0.0479,0.0459,0.0503,0.049,0.0496,0.0412,0.0411,0.041,0.0409,0,0,0.026,0.0307,0.0315,0.0355,0.0385,0.0412,0.0458,0.0508,0.056,0.0562,0.0639,0.064,0.0632,0.0643,0.0621,0.0619,0.0637,0.0569,0.0568,0.0566,0.0647,0.0613,0.0616,0.0618,0.0619,0.0621,0.0614,0,0.0301,0.0369,0.0382,0.0465,0.0507,0.0521,0.0579,0.0619,0.0648,0.0714,0.071,0.0768,0.0691,0.0716,0.0703,0.0671,0.0657,0.0641,0.0602,0.0602,0.0569,0.0624,0.0656,0.0653,0.062,0.062,0.0621,0,0.0343,0.0387,0.0467,0.056,0.0581,0.0628,0.0725,0.0775,0.0846,0.0874,0.0915,0.0915,0.094,0.0858,0.0825,0.0817,0.0738,0.0689,0.0687,0.0646,0.058,0.0605,0.0664,0.065,0.0629,0.0629,0.0628,0,0.0374,0.0457,0.0528,0.0556,0.0646,0.0694,0.0747,0.0823,0.09,0.0983,0.106,0.1064,0.1109,0.1017,0.0904,0.0872,0.085,0.0796,0.0688,0.0684,0.0702,0.0697,0.0752,0.0759,0.0759,0.0759,0.0759,0,0.0425,0.0485,0.0549,0.0592,0.0702,0.0742,0.0864,0.0921,0.1032,0.1168,0.115,0.1263,0.1151,0.1123,0.0973,0.0863,0.0903,0.0721,0.0693,0.072,0.0717,0.0696,0.0655,0.0759,0.0759,0.0759,0.0759,0,0.0455,0.0493,0.0583,0.0678,0.072,0.0797,0.0945,0.1043,0.1134,0.1317,0.1361,0.1434,0.1412,0.1263,0.1137,0.0984,0.0831,0.0785,0.0814,0.0789,0.067,0.0629,0.0632,0.0614,0.0689,0.0689,0.0688,0,0.0481,0.0526,0.0638,0.0709,0.0758,0.0873,0.0974,0.1085,0.1214,0.1438,0.1553,0.1593,0.1651,0.1447,0.1185,0.0935,0.0849,0.0782,0.0722,0.0697,0.0631,0.0607,0.0591,0.0763,0.0763,0.0763,0.0763,0,0.0534,0.0563,0.0634,0.0775,0.0885,0.1024,0.1182,0.1297,0.1472,0.1636,0.1856,0.1915,0.1756,0.1563,0.121,0.1019,0.079,0.0774,0.0762,0.0715,0.0684,0.0643,0.0718,0.0764,0.0764,0.0764,0.0764,0.0764,0.0571,0.0628,0.0727,0.0868,0.1003,0.1194,0.1318,0.1503,0.1727,0.1996,0.2045,0.2146,0.189,0.1439,0.1199,0.0827,0.0796,0.0715,0.0672,0.0656,0.0636,0.07,0.0701,0.07,0.07,0.0699,0.0699,0,0.0633,0.0708,0.0832,0.1011,0.1178,0.1239,0.1483,0.1623,0.1889,0.2095,0.2262,0.2189,0.1876,0.1512,0.102,0.0788,0.0696,0.0671,0.0677,0.0664,0.0751,0.0754,0.0751,0.0751,0.0751,0.0751,0.0751,0.0751,0.0677,0.0795,0.0866,0.1147,0.1279,0.1495,0.1634,0.1843,0.2012,0.2241,0.2299,0.2329,0.2142,0.1378,0.0928,0.0789,0.0682,0.0611,0.0556,0.0647,0.0649,0.0652,0.065,0.0625,0.0625,0.0525,0.0524,0.0523]}],[{"header":{"parameterUnit":"m.s-1","parameterCategory":2,"la1":30.2991,"la2":30.254,"lo1":-89.0895,"lo2":-89.0444,"dy":0.0017,"dx":0.0017,"nx":28,"ny":28,"refTime":"2024-07-08T21:00:00:Z","depth":"2","parameterNumber":2,"parameterNumberName":"U-component_of_CURRENTS"},"data":[0,0,0,0,0,0,0,0,0,0,0,0,0,0,0,0,0,0,0,0,0,0,0,0,0,0,0,0,0,0,0,0,0,0,0,0,0,0,0,0,0,0,0,0,0,0,0,0,0,0,0,0,0,0,0,0,0,0,0.2118,0.2118,0,0.2119,0.2119,0.2119,0.2102,0.2101,0.2101,0.21,0.2155,0.2157,0.2159,0,0,0,0,0,0,0,0,0,0,0,0,0,0.2148,0.2148,0.2118,0.2118,0.2118,0.2119,0.2119,0.2119,0.2102,0.2101,0.2101,0.21,0.2154,0.2156,0.2159,0,0,0,0,0,0,0,0,0,0,0,0,0,0.2141,0.2147,0.2118,0.2109,0.2108,0.2119,0.2119,0.2119,0.2102,0.2101,0.2101,0.21,0.2153,0.2156,0.2159,0.2192,0,0,0.2168,0.2169,0,0,0,0,0,0,0,0,0.2142,0.214,0.211,0.2109,0.2108,0.2109,0.2149,0.2146,0.2102,0.2105,0.21,0.2099,0.2145,0.2148,0.215,0.2195,0.2197,0.2168,0.217,0.2171,0.2172,0,0,0,0,0,0,0,0.2142,0.214,0.2119,0.211,0.2109,0.2121,0.2119,0.2149,0.2131,0.2105,0.2103,0.2103,0.2144,0.2147,0.2151,0.2198,0.2168,0.2171,0.2172,0.2174,0.2354,0.2357,0,0,0,0,0,0,0.2139,0.214,0.2119,0.2119,0.2123,0.2121,0.2118,0.211,0.2129,0.2131,0.2103,0.2102,0.2143,0.2148,0.2153,0.2257,0.2171,0.2174,0.2176,0.2351,0.2355,0.2358,0,0,0,0,0,0,0.2139,0.2137,0.2119,0.213,0.2128,0.2121,0.2112,0.211,0.2117,0.2127,0.213,0.2112,0.2142,0.2149,0.22,0.2257,0.2175,0.2178,0.2348,0.2352,0.2357,0.2425,0,0,0,0,0,0,0.214,0.2137,0.2135,0.2129,0.2127,0.2138,0.2112,0.2111,0.2117,0.2116,0.2136,0.2139,0.2142,0.2196,0.2203,0.2259,0.218,0.2344,0.235,0.2355,0.2419,0.2432,0.2442,0,0,0,0,0,0.2141,0.2139,0.2135,0.2133,0.2123,0.2139,0.214,0.2133,0.2119,0.2134,0.2151,0.2139,0.2238,0.22,0.2208,0.2267,0.2341,0.2348,0.2355,0.2414,0.2429,0.2442,0,0,0,0,0,0,0.2153,0.2137,0.2132,0.2126,0.2139,0.2136,0.2144,0.214,0.2163,0.2163,0.2168,0.2175,0.2248,0.2249,0.2207,0.2339,0.2292,0.2301,0.2335,0.2349,0.2361,0.2348,0.2182,0,0,0,0,0,0.2155,0.2148,0.2148,0.2147,0.2152,0.2151,0.2156,0.2156,0.2171,0.2178,0.2194,0.2227,0.2284,0.2306,0.2347,0.2407,0.2418,0.2456,0.2468,0.2477,0.2475,0.255,0.2568,0.2381,0.2381,0.2381,0,0,0.2158,0.2151,0.2146,0.2149,0.2154,0.2182,0.2153,0.2168,0.2205,0.2184,0.224,0.2268,0.2311,0.2388,0.2421,0.2392,0.254,0.2486,0.2494,0.2486,0.2559,0.2577,0.2593,0.2385,0.2385,0.2384,0,0,0.2177,0.2158,0.2169,0.2186,0.2199,0.2204,0.2212,0.2223,0.2241,0.2298,0.2308,0.2361,0.2429,0.2472,0.2505,0.2605,0.2603,0.2631,0.2673,0.2747,0.2762,0.2775,0.2819,0.2836,0.2631,0.2631,0.2631,0,0.2188,0.2195,0.218,0.2209,0.2221,0.2219,0.2249,0.2282,0.2313,0.2337,0.2329,0.2448,0.2475,0.258,0.2617,0.2631,0.2661,0.2611,0.276,0.2773,0.2786,0.2827,0.2845,0.2635,0.2635,0.2634,0.2634,0,0.2221,0.2237,0.2248,0.2279,0.2295,0.2319,0.2353,0.2383,0.24,0.2431,0.2526,0.2568,0.2632,0.2667,0.2673,0.2789,0.2778,0.2767,0.2715,0.2808,0.2847,0.2864,0.2641,0.264,0.2639,0.2638,0,0,0.2218,0.2262,0.2268,0.229,0.2329,0.2342,0.241,0.2464,0.2513,0.2565,0.2641,0.2736,0.2743,0.2781,0.2805,0.2864,0.2981,0.2854,0.2856,0.2882,0.3134,0.3007,0.3013,0.3001,0.3004,0.3007,0.3126,0,0.2252,0.2303,0.2319,0.2377,0.2401,0.2423,0.2485,0.2537,0.259,0.267,0.2731,0.2822,0.2798,0.2841,0.29,0.2971,0.3029,0.2948,0.3054,0.3056,0.2919,0.303,0.2734,0.2806,0.3143,0.3146,0.3148,0,0.2281,0.2307,0.2358,0.2412,0.2425,0.2464,0.253,0.2593,0.2705,0.2754,0.2837,0.289,0.3,0.2967,0.3111,0.3063,0.3103,0.3141,0.3146,0.301,0.2961,0.277,0.2824,0.3176,0.3173,0.3171,0.317,0,0.2267,0.2333,0.2364,0.2384,0.2452,0.248,0.2519,0.2611,0.2682,0.2816,0.2893,0.3,0.3096,0.3155,0.3217,0.3186,0.3363,0.333,0.325,0.324,0.2997,0.296,0.3432,0.3432,0.3432,0.3432,0.3431,0,0.2289,0.2319,0.2359,0.2381,0.2431,0.2473,0.2548,0.2615,0.2737,0.2846,0.2936,0.3047,0.3155,0.3258,0.3272,0.331,0.341,0.3274,0.3274,0.3013,0.2978,0.3295,0.3277,0.3436,0.3435,0.3434,0.3433,0,0.2286,0.2313,0.2353,0.2409,0.2429,0.2464,0.2562,0.264,0.2746,0.2899,0.2956,0.3134,0.3255,0.3323,0.3449,0.3392,0.3429,0.3413,0.3082,0.3038,0.3241,0.3226,0.3342,0.3338,0.3336,0.3333,0.3331,0,0.2295,0.231,0.236,0.2395,0.2426,0.2481,0.2544,0.264,0.2732,0.2942,0.3033,0.3202,0.3277,0.3384,0.3319,0.3305,0.3414,0.3039,0.2914,0.3249,0.3238,0.3227,0.3217,0.2632,0.2625,0.2619,0.2614,0,0.2316,0.2323,0.2362,0.2427,0.2484,0.2552,0.2642,0.2692,0.2833,0.2926,0.3066,0.3128,0.3201,0.3047,0.3029,0.2979,0.3004,0.2912,0.3392,0.2684,0.2585,0.2572,0.2584,0.2559,0.2564,0.2568,0.2571,0.2574,0.2333,0.2371,0.2427,0.2471,0.2551,0.2637,0.266,0.2717,0.2799,0.2847,0.2972,0.2913,0.2878,0.2675,0.2571,0.2483,0.2699,0.2564,0.2582,0.2606,0.2486,0.2386,0.23,0.2303,0.2307,0.2309,0.2312,0,0.2397,0.2439,0.2481,0.2557,0.2621,0.2676,0.275,0.2691,0.2687,0.2669,0.2658,0.2354,0.2219,0.2202,0.1959,0.1919,0.1881,0.1851,0.1788,0.1843,0.1893,0.1735,0.135,0.1347,0.1344,0.1342,0,0,0.2442,0.2515,0.2515,0.2598,0.2659,0.2728,0.2746,0.259,0.2498,0.2255,0.2116,0.2154,0.2162,0.1754,0.1662,0.1484,0.1663,0.1411,0.2183,0.2169,0.2216,0.2302,0.212,0,0,0,0,0]},{"header":{"parameterUnit":"m.s-1","parameterCategory":2,"la1":30.2991,"la2":30.254,"lo1":-89.0895,"lo2":-89.0444,"dy":0.0017,"dx":0.0017,"nx":28,"ny":28,"refTime":"2024-07-08T21:00:00:Z","depth":"2","parameterNumber":3,"parameterNumberName":"V-component_of_CURRENTS"},"data":[0,0,0,0,0,0,0,0,0,0,0,0,0,0,0,0,0,0,0,0,0,0,0,0,0,0,0,0,0,0,0,0,0,0,0,0,0,0,0,0,0,0,0,0,0,0,0,0,0,0,0,0,0,0,0,0,0,0,0.0111,0.0111,0,0.0112,0.0112,0.0113,0.0108,0.0108,0.0108,0.0108,0.0127,0.0128,0.0128,0,0,0,0,0,0,0,0,0,0,0,0,0,0.0118,0.0118,0.0111,0.0111,0.0111,0.0112,0.0112,0.0113,0.0108,0.0108,0.0108,0.0108,0.0127,0.0128,0.0128,0,0,0,0,0,0,0,0,0,0,0,0,0,0.0117,0.0118,0.0111,0.0109,0.0109,0.0112,0.0112,0.0113,0.0108,0.0108,0.0108,0.0108,0.0127,0.0128,0.0129,0.014,0,0,0.0132,0.0132,0,0,0,0,0,0,0,0,0.0117,0.0117,0.0109,0.0109,0.0109,0.011,0.0122,0.0122,0.0108,0.0109,0.0108,0.0108,0.0123,0.0124,0.0125,0.0141,0.0142,0.0132,0.0132,0.0133,0.0133,0,0,0,0,0,0,0,0.0117,0.0117,0.0112,0.0109,0.0109,0.0112,0.0112,0.0122,0.0118,0.0109,0.0109,0.0108,0.0123,0.0124,0.0126,0.0142,0.0132,0.0133,0.0133,0.0134,0.0192,0.0193,0,0,0,0,0,0,0.0116,0.0117,0.0112,0.0112,0.0112,0.0112,0.0111,0.011,0.0118,0.0118,0.0108,0.0108,0.0123,0.0125,0.0126,0.0176,0.0133,0.0134,0.0134,0.0191,0.0192,0.0193,0,0,0,0,0,0,0.0116,0.0115,0.0112,0.0114,0.0114,0.0112,0.011,0.011,0.0113,0.0117,0.0118,0.0111,0.0123,0.0125,0.0148,0.0175,0.0134,0.0135,0.019,0.0191,0.0193,0.0252,0,0,0,0,0,0,0.0116,0.0115,0.0115,0.0114,0.0114,0.0122,0.0111,0.011,0.0113,0.0112,0.012,0.0121,0.0123,0.0146,0.0149,0.0176,0.0136,0.0189,0.019,0.0192,0.0249,0.0255,0.0261,0,0,0,0,0,0.0116,0.0119,0.0115,0.0114,0.0113,0.0123,0.0124,0.0121,0.0113,0.0121,0.0129,0.0121,0.0159,0.0148,0.015,0.0179,0.0188,0.019,0.0192,0.0246,0.0254,0.0261,0,0,0,0,0,0,0.0122,0.0119,0.0114,0.0116,0.0122,0.0122,0.0128,0.0124,0.0135,0.0135,0.0134,0.0137,0.0167,0.0162,0.015,0.0199,0.0171,0.0174,0.0212,0.0219,0.0225,0.0248,0.0137,0,0,0,0,0,0.0123,0.0125,0.0124,0.0127,0.013,0.0128,0.0131,0.0131,0.0138,0.0142,0.015,0.0159,0.0178,0.0189,0.02,0.0228,0.0217,0.0247,0.0253,0.0258,0.0278,0.0282,0.0291,0.02,0.02,0.02,0,0,0.0125,0.0125,0.0125,0.0129,0.0132,0.0156,0.013,0.0139,0.0168,0.0144,0.0184,0.018,0.0188,0.0223,0.0236,0.0224,0.0274,0.0261,0.0265,0.0282,0.0285,0.0294,0.0302,0.0201,0.0201,0.0201,0,0,0.0143,0.0132,0.0146,0.0156,0.0164,0.0171,0.0175,0.0181,0.0192,0.0224,0.0217,0.0232,0.0256,0.0273,0.0283,0.0328,0.0304,0.0325,0.0379,0.0384,0.0391,0.0398,0.038,0.0385,0.033,0.0331,0.0331,0,0.0147,0.0167,0.0152,0.0177,0.0198,0.0183,0.0218,0.0229,0.0245,0.0267,0.0247,0.0296,0.0287,0.0346,0.0355,0.0345,0.0332,0.0352,0.0392,0.0399,0.0405,0.0385,0.0389,0.0334,0.0333,0.0333,0.0333,0,0.0181,0.0204,0.0215,0.0247,0.0264,0.029,0.0306,0.0327,0.0333,0.0349,0.0397,0.039,0.0424,0.0415,0.0399,0.0444,0.0415,0.0396,0.0375,0.0417,0.0394,0.0397,0.0338,0.0337,0.0336,0.0335,0,0,0.0186,0.0231,0.0239,0.0277,0.0307,0.0332,0.0379,0.0427,0.0476,0.0479,0.055,0.0552,0.0543,0.0553,0.0533,0.0527,0.0537,0.0481,0.0479,0.0466,0.0532,0.0493,0.0492,0.0522,0.0523,0.0525,0.0492,0,0.0225,0.029,0.0304,0.0383,0.0424,0.0438,0.0494,0.0532,0.056,0.0622,0.0617,0.0671,0.06,0.0623,0.0607,0.0567,0.0552,0.0547,0.0491,0.049,0.0453,0.0498,0.0492,0.0462,0.0496,0.0496,0.0497,0,0.0266,0.0308,0.0385,0.0474,0.0493,0.0539,0.0631,0.0679,0.0745,0.0772,0.0809,0.0808,0.0823,0.0752,0.0701,0.0699,0.0624,0.0572,0.0569,0.0521,0.0459,0.0428,0.0467,0.0502,0.0502,0.0501,0.0501,0,0.0295,0.0376,0.0444,0.0471,0.0556,0.0603,0.0655,0.0725,0.0801,0.0877,0.0949,0.0941,0.0983,0.0883,0.0767,0.074,0.0696,0.0647,0.0539,0.0533,0.0514,0.0506,0.0609,0.0609,0.0609,0.0609,0.0609,0,0.0345,0.0403,0.0465,0.0506,0.061,0.0649,0.0765,0.0819,0.0926,0.1051,0.1035,0.1131,0.102,0.0981,0.0827,0.0702,0.0742,0.0565,0.0536,0.0531,0.0525,0.055,0.0544,0.0608,0.0608,0.0608,0.0608,0,0.0374,0.0411,0.0497,0.0588,0.0629,0.0702,0.0846,0.094,0.1027,0.1195,0.1237,0.1297,0.1248,0.1101,0.0962,0.0813,0.0667,0.0605,0.0596,0.0566,0.048,0.0477,0.049,0.0489,0.0488,0.0487,0.0486,0,0.0398,0.0441,0.055,0.0619,0.0667,0.0778,0.0875,0.0983,0.1103,0.1301,0.1405,0.1428,0.1439,0.1212,0.0968,0.0708,0.0676,0.0534,0.048,0.0505,0.0474,0.0473,0.0472,0.0466,0.0465,0.0465,0.0464,0,0.0447,0.0475,0.0544,0.0678,0.0786,0.0924,0.1074,0.1181,0.1342,0.148,0.1642,0.1656,0.1477,0.1235,0.0907,0.0724,0.0568,0.051,0.057,0.0495,0.0479,0.045,0.045,0.0458,0.0458,0.0459,0.0459,0.0459,0.0479,0.0529,0.0622,0.0738,0.0888,0.1076,0.1202,0.1361,0.1556,0.1744,0.1755,0.1741,0.15,0.1053,0.078,0.0509,0.054,0.0407,0.0411,0.0415,0.0416,0.0399,0.0361,0.0361,0.0361,0.0362,0.0362,0,0.0506,0.0575,0.0687,0.0837,0.0995,0.1109,0.1349,0.1466,0.1678,0.1768,0.1838,0.1548,0.1298,0.1013,0.0612,0.037,0.0346,0.0275,0.0303,0.0312,0.0319,0.0316,0.0234,0.0233,0.0232,0.0231,0,0,0.0529,0.0608,0.0643,0.0878,0.1042,0.1301,0.1462,0.1633,0.173,0.1767,0.1721,0.1649,0.134,0.1003,0.0698,0.0473,0.0437,0.0411,0.0541,0.0621,0.0631,0.0427,0.0435,0,0,0,0,0]}],[{"header":{"parameterUnit":"m.s-1","parameterCategory":2,"la1":30.2991,"la2":30.254,"lo1":-89.0895,"lo2":-89.0444,"dy":0.0017,"dx":0.0017,"nx":28,"ny":28,"refTime":"2024-07-08T21:00:00:Z","depth":"4","parameterNumber":2,"parameterNumberName":"U-component_of_CURRENTS"},"data":[0,0,0,0,0,0,0,0,0,0,0,0,0,0,0,0,0,0,0,0,0,0,0,0,0,0,0,0,0,0,0,0,0,0,0,0,0,0,0,0,0,0,0,0,0,0,0,0,0,0,0,0,0,0,0,0,0,0,0.1299,0.13,0,0.1344,0.1344,0.1344,0.138,0.138,0.1381,0.1381,0.1434,0.1435,0.1436,0,0,0,0,0,0,0,0,0,0,0,0,0,0.1258,0.1258,0.1299,0.13,0.1301,0.1344,0.1344,0.1345,0.138,0.138,0.1381,0.1382,0.1434,0.1435,0.1436,0,0,0,0,0,0,0,0,0,0,0,0,0,0.1284,0.1258,0.1299,0.1325,0.1328,0.1344,0.1344,0.1345,0.1379,0.138,0.1381,0.1382,0.1434,0.1435,0.1436,0.1427,0,0,0.144,0.1441,0,0,0,0,0,0,0,0,0.1282,0.1285,0.1321,0.1323,0.1327,0.1359,0.1349,0.1374,0.1379,0.1357,0.1381,0.1382,0.1411,0.1414,0.1417,0.143,0.1432,0.144,0.1441,0.1442,0.1442,0,0,0,0,0,0,0,0.128,0.1283,0.1314,0.1321,0.1325,0.134,0.1344,0.1354,0.1377,0.1359,0.1363,0.1371,0.1412,0.1416,0.1419,0.1433,0.144,0.1441,0.1442,0.1443,0.1533,0.1534,0,0,0,0,0,0,0.1278,0.1282,0.1313,0.1316,0.1309,0.134,0.1344,0.1346,0.1377,0.1383,0.137,0.1373,0.1413,0.1417,0.1421,0.148,0.1442,0.1443,0.1444,0.1531,0.1533,0.1535,0,0,0,0,0,0,0.1277,0.128,0.1311,0.1302,0.1308,0.134,0.1341,0.1346,0.1378,0.1386,0.1392,0.1401,0.1414,0.1419,0.1449,0.148,0.1444,0.1445,0.1529,0.1532,0.1534,0.1555,0,0,0,0,0,0,0.1275,0.1279,0.1294,0.1302,0.1308,0.1332,0.1341,0.1347,0.1382,0.1386,0.1413,0.1417,0.1415,0.1447,0.1451,0.1481,0.1446,0.1527,0.1531,0.1533,0.1553,0.1558,0.1563,0,0,0,0,0,0.1274,0.1288,0.1294,0.1299,0.1322,0.1333,0.1337,0.1361,0.1383,0.1394,0.1416,0.1418,0.147,0.1449,0.1453,0.1484,0.1526,0.153,0.1533,0.155,0.1557,0.1563,0,0,0,0,0,0,0.128,0.1293,0.13,0.1319,0.1331,0.134,0.1362,0.1377,0.1404,0.1418,0.1427,0.1432,0.1477,0.1478,0.1455,0.1522,0.1503,0.1507,0.1515,0.1521,0.1526,0.1581,0.1447,0,0,0,0,0,0.1286,0.1301,0.131,0.1327,0.1336,0.1354,0.137,0.1382,0.1401,0.1415,0.1437,0.1464,0.149,0.1503,0.1524,0.1549,0.1568,0.1577,0.1582,0.1587,0.1636,0.1683,0.1697,0.1547,0.1547,0.1547,0,0,0.1294,0.1305,0.1314,0.133,0.1345,0.136,0.1366,0.1392,0.1413,0.1416,0.1463,0.1485,0.1504,0.1537,0.1558,0.1543,0.163,0.1591,0.1594,0.1643,0.1688,0.1703,0.1716,0.1549,0.1549,0.1549,0,0,0.1301,0.1326,0.1332,0.1345,0.1368,0.1384,0.1397,0.142,0.1442,0.1481,0.1495,0.1545,0.1573,0.1598,0.1612,0.1663,0.1661,0.1662,0.1725,0.1769,0.1782,0.1794,0.1791,0.1803,0.1658,0.1658,0.1658,0,0.1314,0.1319,0.1338,0.1345,0.1366,0.1398,0.1412,0.1435,0.1469,0.1493,0.1506,0.1597,0.1613,0.1665,0.1695,0.1678,0.1686,0.1691,0.1776,0.1788,0.18,0.1795,0.1808,0.1659,0.1659,0.1659,0.1659,0,0.131,0.1328,0.1337,0.1361,0.1385,0.1406,0.1437,0.1474,0.152,0.1546,0.1624,0.166,0.1724,0.1728,0.1737,0.1824,0.1794,0.1777,0.1757,0.1816,0.1806,0.1819,0.1661,0.1661,0.166,0.166,0,0,0.1306,0.1329,0.1337,0.1347,0.1398,0.1412,0.1466,0.1514,0.1563,0.162,0.1687,0.1765,0.1811,0.1836,0.1847,0.1899,0.1976,0.1888,0.189,0.1881,0.2045,0.1888,0.1886,0.1968,0.1971,0.1974,0.1987,0,0.1302,0.131,0.1335,0.1368,0.1377,0.1433,0.1486,0.1539,0.16,0.1671,0.1737,0.1818,0.1836,0.189,0.1944,0.1987,0.202,0.1973,0.1996,0.1997,0.1847,0.19,0.1985,0.1996,0.1999,0.2001,0.2003,0,0.129,0.1298,0.132,0.1371,0.1386,0.1426,0.1525,0.1578,0.168,0.1727,0.1822,0.1881,0.1997,0.1997,0.2111,0.2079,0.2088,0.2102,0.2101,0.1973,0.1866,0.1938,0.2026,0.2024,0.2022,0.2021,0.2019,0,0.126,0.1293,0.1314,0.1329,0.1395,0.1437,0.1502,0.1604,0.1656,0.1789,0.1847,0.1967,0.2044,0.2115,0.2177,0.2158,0.2269,0.2223,0.2074,0.206,0.2187,0.2174,0.2297,0.2297,0.2297,0.2297,0.2297,0,0.1235,0.1255,0.1307,0.1311,0.137,0.1436,0.1525,0.1596,0.1707,0.1774,0.1896,0.1952,0.2089,0.2159,0.22,0.2182,0.2283,0.2116,0.2072,0.2186,0.2174,0.2192,0.218,0.2297,0.2297,0.2297,0.2297,0,0.119,0.1226,0.1247,0.1315,0.1351,0.1402,0.1521,0.156,0.1702,0.1794,0.1851,0.1964,0.2058,0.2148,0.2241,0.2179,0.22,0.2153,0.2264,0.2222,0.1946,0.1935,0.1989,0.1983,0.1979,0.1976,0.1973,0,0.116,0.1169,0.1235,0.1245,0.1279,0.1367,0.1408,0.1546,0.1584,0.1778,0.1789,0.1928,0.1998,0.1998,0.2092,0.213,0.2102,0.2075,0.2037,0.1973,0.1925,0.1921,0.1915,0.1966,0.1965,0.1964,0.1963,0,0.1089,0.1128,0.1123,0.1146,0.1181,0.1228,0.1306,0.1338,0.1504,0.165,0.1717,0.1779,0.184,0.1898,0.1935,0.1959,0.209,0.203,0.2038,0.2002,0.1946,0.1902,0.1902,0.1948,0.195,0.1951,0.1952,0,0.1028,0.0994,0.098,0.0998,0.1025,0.103,0.1131,0.1185,0.1267,0.1513,0.1524,0.1682,0.1817,0.1804,0.1849,0.1862,0.1825,0.176,0.1782,0.1799,0.1733,0.1633,0.1526,0,0,0,0,0,0.0936,0.0844,0.0826,0.0789,0.0817,0.0856,0.0994,0.1105,0.1308,0.1317,0.1432,0.1506,0.1575,0.1628,0.1602,0.172,0.1803,0.1677,0.1732,0.1866,0.1883,0.1824,0,0,0,0,0,0,0.0849,0.0786,0.0742,0.0601,0.057,0.0583,0.0689,0.086,0.0898,0.1137,0.1184,0.1366,0.1447,0.1558,0.1547,0.1569,0.1565,0.1784,0.178,0.1857,0.1872,0.1886,0.183,0,0,0,0,0]},{"header":{"parameterUnit":"m.s-1","parameterCategory":2,"la1":30.2991,"la2":30.254,"lo1":-89.0895,"lo2":-89.0444,"dy":0.0017,"dx":0.0017,"nx":28,"ny":28,"refTime":"2024-07-08T21:00:00:Z","depth":"4","parameterNumber":3,"parameterNumberName":"V-component_of_CURRENTS"},"data":[0,0,0,0,0,0,0,0,0,0,0,0,0,0,0,0,0,0,0,0,0,0,0,0,0,0,0,0,0,0,0,0,0,0,0,0,0,0,0,0,0,0,0,0,0,0,0,0,0,0,0,0,0,0,0,0,0,0,-0.0012,-0.0012,0,-0.0004,-0.0004,-0.0004,-0.0009,-0.0009,-0.0009,-0.0009,0.0011,0.0012,0.0012,0,0,0,0,0,0,0,0,0,0,0,0,0,-0.0015,-0.0015,-0.0012,-0.0012,-0.0012,-0.0004,-0.0004,-0.0004,-0.0009,-0.0009,-0.0009,-0.001,0.0011,0.0012,0.0012,0,0,0,0,0,0,0,0,0,0,0,0,0,-0.0011,-0.0015,-0.0012,-0.0014,-0.0014,-0.0004,-0.0004,-0.0004,-0.0009,-0.0009,-0.0009,-0.001,0.001,0.0011,0.0013,0.0028,0,0,0.0016,0.0017,0,0,0,0,0,0,0,0,-0.0011,-0.0011,-0.0013,-0.0013,-0.0014,-0.0008,0.0003,0.0007,-0.0008,-0.001,-0.0009,-0.001,0.0006,0.0007,0.001,0.0029,0.003,0.0016,0.0017,0.0018,0.0018,0,0,0,0,0,0,0,-0.0011,-0.0011,-0.0009,-0.0013,-0.0013,-0.0009,-0.0009,0.0004,0.0,-0.001,-0.0011,-0.001,0.0006,0.0009,0.001,0.003,0.0016,0.0017,0.0018,0.0019,0.007,0.007,0,0,0,0,0,0,-0.0013,-0.0011,-0.0009,-0.0008,-0.0014,-0.0009,-0.0009,-0.0009,-0.0,0.0001,-0.001,-0.001,0.0007,0.0009,0.0011,0.0046,0.0018,0.0019,0.0019,0.0069,0.007,0.0071,0,0,0,0,0,0,-0.0013,-0.0013,-0.0009,-0.001,-0.0009,-0.0008,-0.0009,-0.0009,-0.0006,0.0,0.0001,-0.0007,0.0007,0.0009,0.0031,0.0046,0.0019,0.002,0.0068,0.0069,0.007,0.0106,0,0,0,0,0,0,-0.0014,-0.0013,-0.0013,-0.001,-0.0009,0.0002,-0.0008,-0.0008,-0.0005,-0.0006,0.0003,0.0004,0.0007,0.0029,0.0032,0.0047,0.0021,0.0067,0.0069,0.007,0.0104,0.0108,0.0111,0,0,0,0,0,-0.0014,-0.0009,-0.0013,-0.0013,-0.0009,0.0002,0.0003,0.0002,-0.0004,0.0002,0.0011,0.0004,0.0039,0.0031,0.0034,0.005,0.0067,0.0068,0.007,0.0102,0.0107,0.0111,0,0,0,0,0,0,-0.001,-0.0009,-0.0014,-0.001,-0.0003,0.0001,0.0006,0.0004,0.0015,0.0015,0.0017,0.002,0.0043,0.0042,0.0033,0.0067,0.005,0.0052,0.0073,0.0078,0.0082,0.0088,0.0022,0,0,0,0,0,-0.001,-0.0006,-0.0004,-0.0,0.0003,0.0004,0.0008,0.0008,0.0017,0.0021,0.0029,0.0038,0.0052,0.0061,0.0072,0.0094,0.0071,0.0104,0.0108,0.0111,0.0118,0.0091,0.0092,0.0075,0.0075,0.0075,0,0,-0.0009,-0.0007,-0.0006,0.0001,0.0004,0.0024,0.0006,0.0015,0.0035,0.0022,0.0053,0.0053,0.0061,0.0086,0.0096,0.0087,0.0104,0.0113,0.0116,0.0121,0.0092,0.0094,0.0095,0.0076,0.0076,0.0076,0,0,0.0003,-0.0002,0.0008,0.0019,0.0027,0.0035,0.0039,0.0048,0.0053,0.0082,0.0075,0.0085,0.0112,0.0117,0.0123,0.0154,0.0124,0.0156,0.0183,0.0156,0.0157,0.0157,0.0126,0.0123,0.0158,0.0158,0.0158,0,0.0004,0.0019,0.0014,0.0034,0.0049,0.0044,0.0069,0.0079,0.0095,0.0102,0.0098,0.0126,0.0129,0.0153,0.0166,0.0164,0.0139,0.0166,0.016,0.016,0.016,0.0127,0.0124,0.016,0.016,0.016,0.0159,0,0.0029,0.0045,0.0054,0.0081,0.0097,0.0116,0.0131,0.0145,0.0152,0.0159,0.0179,0.0181,0.0196,0.0196,0.0196,0.0201,0.0179,0.0166,0.0147,0.0164,0.0128,0.0124,0.0163,0.0162,0.0161,0.0161,0,0,0.0027,0.0063,0.0069,0.0091,0.0123,0.0141,0.0176,0.0202,0.022,0.023,0.0249,0.0268,0.0254,0.0261,0.0249,0.0229,0.0206,0.0202,0.02,0.0168,0.0139,0.0141,0.0137,0.0187,0.0186,0.0186,0.0112,0,0.005,0.0093,0.011,0.0163,0.0188,0.0204,0.0241,0.0262,0.0274,0.0291,0.028,0.0302,0.0283,0.0291,0.0267,0.0228,0.0198,0.0227,0.013,0.0127,0.0125,0.0133,0.0185,0.0108,0.0107,0.0107,0.0106,0,0.0075,0.0102,0.015,0.0205,0.0218,0.0253,0.03,0.0334,0.0351,0.0355,0.0359,0.0351,0.0344,0.0317,0.0252,0.0269,0.021,0.0167,0.0163,0.0153,0.0123,0.0089,0.0098,0.0099,0.01,0.01,0.0101,0,0.0079,0.0135,0.0175,0.0194,0.0253,0.0279,0.0318,0.0351,0.0386,0.0398,0.0415,0.0392,0.0387,0.032,0.0252,0.0248,0.016,0.0139,0.0079,0.0078,0.008,0.008,0.0075,0.0076,0.0076,0.0076,0.0076,0,0.0101,0.0134,0.018,0.0203,0.0263,0.0298,0.0362,0.0386,0.0426,0.0475,0.0453,0.0469,0.0387,0.0336,0.0259,0.0166,0.0164,0.0088,0.0063,0.0097,0.01,0.0077,0.0078,0.0073,0.0074,0.0074,0.0075,0,0.0101,0.013,0.0181,0.024,0.0268,0.0313,0.0406,0.045,0.0479,0.0538,0.0552,0.0522,0.0463,0.0374,0.0256,0.0181,0.009,0.005,0.0097,0.0075,0.0018,0.0022,-0.0025,-0.0026,-0.0026,-0.0026,-0.0027,0,0.0105,0.0128,0.0202,0.0246,0.0278,0.0353,0.0414,0.0473,0.0527,0.0578,0.0606,0.0565,0.0536,0.0375,0.0262,0.0109,0.008,0.0017,0.0017,0.0029,0.0009,0.0014,0.0018,-0.0027,-0.0027,-0.0027,-0.0028,0,0.011,0.0133,0.0174,0.0269,0.0339,0.0429,0.0518,0.0549,0.0626,0.0645,0.0666,0.0598,0.0516,0.0385,0.0264,0.0152,0.0056,0.0013,0.0012,0.0011,0.0026,0.0008,0.0013,-0.0029,-0.0029,-0.0029,-0.0028,0,0.0112,0.0148,0.0215,0.0302,0.0397,0.0498,0.0531,0.0607,0.0663,0.0707,0.0704,0.0629,0.0578,0.0406,0.03,0.0192,0.0153,0.0099,0.0093,0.0093,0.0151,0.0189,0.0167,0,0,0,0,0,0.0122,0.0179,0.0254,0.0364,0.0458,0.0526,0.0613,0.0639,0.0685,0.0712,0.0718,0.0656,0.0504,0.0427,0.0321,0.027,0.0117,0.0136,0.0049,-0.0036,-0.0034,0.0014,0,0,0,0,0,0,0.0139,0.0204,0.0258,0.0409,0.0489,0.0613,0.0665,0.0688,0.0703,0.0717,0.0638,0.0619,0.0466,0.0579,0.032,0.0285,0.0209,0.0071,0.0068,-0.0037,-0.0035,-0.0034,0.0016,0,0,0,0,0]}]]